This demonstration page uses our WeatherBlox Daily Observations layout. Learn more.

Left ArrowRight Arrow

Hourly Observations for April 23, 2017

Temp ( °F °C ) Dew Point ( °F °C ) Humidity (%) Winds ( mph kmh ) Pressure ( in mb ) Visibility ( mi km ) Precip ( " mm )
12:53 am 00:53 Mostly Clear 55 12.8 47 8.3 74 74 Calm 29.90 1013 10 16 0.00 0.00
1:53 am 01:53 Cloudy 54 12.2 49 9.4 83 83 NW 5 7 29.90 1013 10 16 0.00 0.00
2:53 am 02:53 Mostly Cloudy 53 11.7 48 8.9 83 83 W 6 9 29.90 1012 10 16 0.00 0.00
3:53 am 03:53 Cloudy 53 11.7 47 8.3 80 80 N 3 6 29.91 1013 10 16 0.00 0.00
4:53 am 04:53 Clear 50 10 45 7.2 83 83 SW 6 9 29.91 1013 10 16 0.00 0.00
5:53 am 05:53 Clear 51 10.6 40 4.4 66 66 WNW 6 9 29.91 1013 10 16 0.00 0.00
6:53 am 06:53 Sunny 48 8.9 45 7.2 89 89 NW 3 6 29.92 1013 10 16 0.00 0.00
7:53 am 07:53 Sunny 54 12.2 44 6.7 69 69 Calm 29.93 1014 10 16 0.00 0.00
8:53 am 08:53 Sunny 58 14.4 42 5.6 56 56 Calm 29.93 1014 10 16 0.00 0.00
9:53 am 09:53 Sunny 62 16.7 44 6.7 52 52 undefined N/A 29.93 1014 10 16 0.00 0.00
10:53 am 10:53 Sunny 64 17.8 39 3.9 40 40 SSE 5 7 29.93 1014 10 16 0.00 0.00
11:53 am 11:53 Sunny 66 18.9 39 3.9 37 37 VRB 3 6 29.93 1014 10 16 0.00 0.00
12:53 pm 12:53 Sunny 68 20 40 4.4 36 36 VRB 5 7 29.92 1013 10 16 0.00 0.00
1:53 pm 13:53 Sunny 70 21.1 39 3.9 32 32 VRB 5 7 29.90 1013 10 16 0.00 0.00
2:53 pm 14:53 Sunny 70 21.1 40 4.4 34 34 SSW 8 13 29.89 1012 10 16 0.00 0.00
3:53 pm 15:53 Sunny 71 21.7 44 6.7 38 38 S 7 11 29.88 1012 10 16 0.00 0.00
4:53 pm 16:53 Partly Cloudy 70 21.1 45 7.2 41 41 S 12 19 29.87 1012 10 16 0.00 0.00
5:53 pm 17:53 Cloudy 71 21.7 45 7.2 39 39 S 14 22 29.86 1011 10 16 0.00 0.00
6:53 pm 18:53 Sunny 68 20 47 8.3 47 47 SSW 12 19 29.86 1011 10 16 0.00 0.00
7:53 pm 19:53 Sunny 65 18.3 39 3.9 39 39 SW 6 9 29.87 1011 10 16 0.00 0.00
8:53 pm 20:53 Cloudy 63 17.2 41 5 45 45 S 7 11 29.87 1012 10 16 0.00 0.00
9:53 pm 21:53 Cloudy 63 17.2 41 5 45 45 undefined N/A 29.88 1012 10 16 0.00 0.00
10:53 pm 22:53 Cloudy 62 16.7 41 5 46 46 Calm 29.87 1012 10 16 0.00 0.00
11:53 pm 23:53 Cloudy 61 16.1 40 4.4 46 46 SSE 5 7 29.87 1012 10 16 0.00 0.00

Powered by AerisWeather